Simultaneous Nadir Overpasses (SNOs) Predictions

Prediction of SNOs between FY3D and NOAA-19 Satellite Orbit:

Table of predicted SNOs for the next 14.0 days since TLE Epoch: 5/25/2024
Index Date (FY3D) Time (FY3D) Lat,Lon (FY3D) SZA (FY3D ) Date (NOAA-19) Time (NOAA-19) Lat,Lon (NOAA-19) SZA (NOAA-19 ) Distance(km) Time Diff (sec)
1 06/01/2024 11:54:00 -76.07,-179.84 126.17 06/01/2024 11:52:48 -76.05,-179.92 126.19 2.94 72
2 06/01/2024 12:44:46 76.09, -12.61 53.85 06/01/2024 12:43:41 76.07, -12.54 53.84 2.29 65
3 06/01/2024 13:35:31 -76.08, 154.74 126.17 06/01/2024 13:34:45 -76.09, 154.75 126.16 1.57 46
4 06/01/2024 14:26:17 76.10, -38.03 53.85 06/01/2024 14:25:39 76.07, -38.03 53.83 2.80 38
5 06/01/2024 15:17:02 -76.09, 129.32 126.17 06/01/2024 15:16:43 -76.09, 129.26 126.16 1.65 19
6 06/01/2024 16:07:48 76.11, -63.45 53.86 06/01/2024 16:07:36 76.12, -63.36 53.86 2.55 12
7 06/01/2024 16:58:33 -76.10, 103.90 126.16 06/01/2024 16:58:41 -76.09, 103.77 126.17 3.77 8
8 06/01/2024 17:49:19 76.12, -88.87 53.86 06/01/2024 17:49:34 76.12, -88.85 53.85 0.82 15
9 06/01/2024 18:40:04 -76.11, 78.48 126.16 06/01/2024 18:40:38 -76.13, 78.44 126.14 2.56 34
10 06/01/2024 19:30:50 76.14,-114.29 53.86 06/01/2024 19:31:32 76.12,-114.34 53.84 2.34 42
11 06/01/2024 20:21:35 -76.13, 53.06 126.16 06/01/2024 20:22:36 -76.13, 52.95 126.15 3.16 61
12 06/01/2024 21:12:21 76.15,-139.71 53.87 06/01/2024 21:13:29 76.16,-139.67 53.88 2.03 68
13 06/01/2024 22:03:18 -76.67, 25.63 125.60 06/01/2024 22:04:23 -76.61, 29.31 125.68 94.95 65



Historial Predications of SNOs between FY3D and NOAA-19
